WS Maaseik 1 Meer informatie WS Maaseik 1


WS Maaseik 2 Meer informatie WS Maaseik 2


Regen radar Meer informatie rain snow radar


Bezoek onze andere website:

Vorige versie
weerstation Maaseik


Bezoek ook eens deze sites:

Weerstation Geleen



Het weer levert geen direct gevaar op.    Er zijn geen waarschuwingen afgegeven.

15 daagse weersverwachting Allschwil (CH)

  • Overzicht
  • Per uur
  • 15 dagen
  • Extra
  • Vergelijk
  • Kaarten
  • Dagkaart
  • Meer »
  • Info
  • Statistieken
  • Directe link
    Temp 6h Neerslag Wind  
 06:15     20:58    Daglengte: 14:43 Vandaag
14:00
19°
 
3
20:00
18°
4.2 mm
3
 06:16     20:56    Daglengte: 14:40 Morgen
02:00
15°
 
2
08:00
16°
3.7 mm
4
14:00
20°
 
5
20:00
19°
 
2
 06:17     20:54    Daglengte: 14:37 Zaterdag 07 Aug
02:00
14°
 
1
08:00
15°
 
1
14:00
18°
13.4 mm
2
20:00
16°
57.5 mm
3
 06:19     20:53    Daglengte: 14:34 Zondag 08 Aug
02:00
15°
39.2 mm
1
08:00
14°
77.7 mm
2
Locatie info
Region: Arlesheim
Latitude: 47.5516°N
Longitude: 7.5381°E
288 masl
Postcode: 4123
Temp/Neerslag /Baro Onweer/Dauwpunt
    Temp Baro 1h Neerslag Dauwpunt Wind UV Bewolking  
 06:15     20:58    Daglengte: 14:43 Vandaag
14:00
19°
1010.9 hPa
49%
16.2°
3
Windvlaag: 1.2 m/s
79%
15:00
18°
1010.8 hPa 2.6 mm
82%
16.2°
4
Windvlaag: 0.8 m/s
63%
16:00
19°
1010.5 hPa
77%
16.1°
4
Windvlaag: 1.3 m/s
50%
17:00
20°
1010.1 hPa 1.6 mm
76%
16.9°
5
Windvlaag: 1.3 m/s
16%
18:00
19°
1010.1 hPa
72%
16.6°
4
Windvlaag: 2.3 m/s
11%
19:00
19°
1010.1 hPa
28%
15.8°
4
Windvlaag: 2 m/s
14%
20:00
18°
1010.4 hPa
14%
14.4°
3
Windvlaag: 1.6 m/s
27%
21:00
17°
1010.6 hPa
15%
14.3°
1
Windvlaag: 1.3 m/s
13%
22:00
16°
1010.9 hPa
14%
13.8°
1
Windvlaag: 1.8 m/s
14%
23:00
15°
1011.0 hPa
14%
12.6°
2
Windvlaag: 2.6 m/s
23%
 06:16     20:56    Daglengte: 14:40 Morgen
00:00
15°
1010.5 hPa
14%
11.8°
2
Windvlaag: 3.4 m/s
62%
01:00
15°
1010.0 hPa
23%
11.6°
2
Windvlaag: 2.9 m/s
76%
02:00
15°
1009.4 hPa
82%
11.7°
2
Windvlaag: 3.8 m/s
69%
03:00
15°
1008.8 hPa
76%
12.0°
2
Windvlaag: 3.7 m/s
86%
04:00
15°
1008.3 hPa 1.8 mm
82%
12.5°
2
Windvlaag: 3.3 m/s
86%
05:00
15°
1008.4 hPa 1.9 mm
82%
12.7°
2
Windvlaag: 1.6 m/s
70%
06:00
15°
1008.5 hPa
79%
12.9°
1
Windvlaag: 1.7 m/s
77%
07:00
15°
1009.2 hPa
18%
12.7°
2
Windvlaag: 2.7 m/s
44%
08:00
16°
1009.7 hPa
63%
14.4°
4
Windvlaag: 4.6 m/s
18%
09:00
17°
1010.0 hPa
51%
14.6°
4
Windvlaag: 4.4 m/s
12%
10:00
18°
1010.3 hPa
14%
15.0°
5
Windvlaag: 4.3 m/s
18%
11:00
18°
1010.7 hPa
14%
15.2°
5
Windvlaag: 3.3 m/s
11%
12:00
19°
1010.7 hPa
14%
16.0°
5
Windvlaag: 3.2 m/s
10%
13:00
20°
1010.5 hPa
14%
15.2°
5
Windvlaag: 3.1 m/s
28%
14:00
20°
1010.5 hPa
14%
13.8°
5
Windvlaag: 3 m/s
22%
15:00
21°
1010.4 hPa
14%
15.0°
5
Windvlaag: 4.3 m/s
23%
16:00
21°
1010.2 hPa
14%
15.4°
5
Windvlaag: 4 m/s
59%
17:00
21°
1010.1 hPa
14%
15.6°
4
Windvlaag: 3.3 m/s
62%
18:00
21°
1010.1 hPa
14%
15.5°
4
Windvlaag: 2.2 m/s
62%
19:00
20°
1009.9 hPa
14%
15.0°
3
Windvlaag: 1.7 m/s
45%
20:00
19°
1010.0 hPa
14%
14.1°
2
Windvlaag: 0.5 m/s
33%
21:00
17°
1010.1 hPa
15%
14.6°
1
Windvlaag: 0.4 m/s
31%
22:00
16°
1010.4 hPa
14%
13.9°
1
Windvlaag: 1.6 m/s
12%
23:00
15°
1010.4 hPa
14%
13.5°
2
Windvlaag: 2.5 m/s
5%
 06:17     20:54    Daglengte: 14:37 Zaterdag 07 Aug
00:00
14°
1010.3 hPa
14%
13.0°
1
Windvlaag: 2.4 m/s
10%
01:00
14°
1010.1 hPa
14%
12.5°
2
Windvlaag: 2.3 m/s
46%
02:00
14°
1009.8 hPa
14%
12.4°
1
Windvlaag: 2.1 m/s
62%
03:00
14°
1009.3 hPa
14%
12.5°
1
Windvlaag: 2.6 m/s
62%
04:00
13°
1008.9 hPa
14%
12.3°
1
Windvlaag: 2.2 m/s
80%
05:00
14°
1008.5 hPa
28%
12.6°
2
Windvlaag: 2.3 m/s
70%
06:00
14°
1008.3 hPa
22%
12.7°
1
Windvlaag: 3 m/s
49%
07:00
14°
1007.9 hPa
14%
12.7°
1
Windvlaag: 3.1 m/s
37%
08:00
15°
1007.7 hPa
14%
12.9°
1
Windvlaag: 2.9 m/s
57%
09:00
16°
1007.6 hPa
16%
13.3°
1
Windvlaag: 2.8 m/s
60%
10:00
18°
1007.3 hPa 2.0 mm
82%
13.5°
2
Windvlaag: 2.7 m/s
80%
11:00
19°
1006.8 hPa 3.6 mm
100%
10.3°
1
Windvlaag: 2.3 m/s
91%
12:00
19°
1007.0 hPa 2.6 mm
100%
11.8°
2
Windvlaag: 1.8 m/s
97%
13:00
19°
1006.8 hPa 2.5 mm
100%
11.9°
2
Windvlaag: 2.6 m/s
98%
14:00
18°
1006.8 hPa 2.8 mm
100%
15.2°
2
Windvlaag: 0.9 m/s
98%
15:00
17°
1006.7 hPa 4.1 mm
100%
16.2°
2
Windvlaag: 0.1 m/s
99%
16:00
17°
1006.6 hPa 5.6 mm
100%
16.5°
2
Windvlaag: -1.6 m/s
100%
17:00
16°
1006.7 hPa 9.1 mm
100%
15.4°
2
Windvlaag: -3 m/s
100%
18:00
15°
1006.9 hPa 13.5 mm
100%
14.5°
1
Windvlaag: -1 m/s
100%
19:00
15°
1007.3 hPa 13.7 mm
100%
14.2°
1
Windvlaag: 4.3 m/s
100%
20:00
16°
1007.4 hPa 11.5 mm
100%
13.2°
3
Windvlaag: 5.1 m/s
99%
21:00
15°
1008.4 hPa 9.9 mm
100%
13.0°
2
Windvlaag: 5.4 m/s
94%
22:00
15°
1009.7 hPa 8.4 mm
100%
13.2°
2
Windvlaag: 2.5 m/s
100%
23:00
15°
1010.1 hPa 7.9 mm
100%
13.3°
1
Windvlaag: 3.5 m/s
97%
 06:19     20:53    Daglengte: 14:34 Zondag 08 Aug
00:00
15°
1010.5 hPa 13.0 mm
47%
13.0°
1
Windvlaag: 2.4 m/s
82%
01:00
15°
1010.8 hPa
37%
12.2°
1
Windvlaag: 3.8 m/s
15%
02:00
15°
1011.1 hPa
25%
12.0°
1
Windvlaag: 2.4 m/s
31%
03:00
15°
1011.2 hPa
22%
12.2°
2
Windvlaag: 2.4 m/s
42%
04:00
14°
1011.5 hPa
23%
11.5°
2
Windvlaag: 2.9 m/s
22%
05:00
13°
1011.8 hPa
25%
11.1°
2
Windvlaag: 3.3 m/s
20%
06:00
13°
1012.4 hPa 13.1 mm
26%
10.8°
2
Windvlaag: 3.2 m/s
54%
07:00
13°
1013.0 hPa
28%
11.1°
2
Windvlaag: 3.5 m/s
21%
08:00
14°
1013.6 hPa
32%
11.5°
2
Windvlaag: 3.9 m/s
29%
09:00
16°
1014.9 hPa   -35.9°
3
Windvlaag: 0 m/s
0%
Temp/Neerslag /Baro Onweer/Dauwpunt
    Temp Baro Neerslag Dauwpunt Wind Bewolking  
 06:15     20:58    Daglengte: 14:43 Vandaag
14:00
19°
1010.9 hPa   16.2°
3
79%
17:00
20°
1010.1 hPa 4.2 mm 16.9°
5
16%
20:00
18°
1010.4 hPa   14.4°
3
27%
23:00
15°
1011.0 hPa   12.6°
2
23%
 06:16     20:56    Daglengte: 14:40 Morgen
02:00
15°
1009.4 hPa   11.7°
2
69%
05:00
15°
1008.4 hPa 3.7 mm 12.7°
2
70%
08:00
16°
1009.7 hPa   14.4°
4
18%
11:00
18°
1010.7 hPa   15.2°
5
11%
14:00
20°
1010.5 hPa   13.8°
5
22%
17:00
21°
1010.1 hPa   15.6°
4
62%
20:00
19°
1010.0 hPa   14.1°
2
33%
23:00
15°
1010.4 hPa   13.5°
2
5%
 06:17     20:54    Daglengte: 14:37 Zaterdag 07 Aug
02:00
14°
1009.8 hPa   12.4°
1
62%
05:00
14°
1008.5 hPa   12.6°
2
70%
08:00
15°
1007.7 hPa   12.9°
1
57%
11:00
19°
1006.8 hPa 5.5 mm 10.3°
1
91%
14:00
18°
1006.8 hPa 7.9 mm 15.2°
2
98%
17:00
16°
1006.7 hPa 18.9 mm 15.4°
2
100%
20:00
16°
1007.4 hPa 38.6 mm 13.2°
3
99%
23:00
15°
1010.1 hPa 26.2 mm 13.3°
1
97%
 06:19     20:53    Daglengte: 14:34 Zondag 08 Aug
02:00
15°
1011.1 hPa 13.0 mm 12.0°
1
31%
05:00
13°
1011.8 hPa   11.1°
2
20%
08:00
14°
1013.6 hPa 38.9 mm 11.5°
2
29%
11:00
17°
1015.3 hPa   12.4°
4
0%
14:00
20°
1015.6 hPa   12.3°
4
30%
17:00
19°
1017.2 hPa 25.8 mm 14.9°
5
0%
20:00
16°
1018.8 hPa 26.4 mm 13.8°
2
0%
23:00
13°
1021.0 hPa 26.4 mm 11.7°
2
0%
 06:20     20:51    Daglengte: 14:31 Maandag 09 Aug
02:00
12°
1021.2 hPa 26.4 mm 10.0°
2
0%
05:00
12°
1020.7 hPa 26.4 mm 9.0°
2
1%
08:00
14°
1021.3 hPa 26.4 mm 10.5°
1
1%
11:00
19°
1022.2 hPa 26.4 mm 11.9°
1
1%
14:00
21°
1022.4 hPa 26.4 mm 12.1°
2
1%
17:00
21°
1022.1 hPa 26.4 mm 13.2°
3
1%
20:00
18°
1023.0 hPa 26.5 mm 14.2°
2
0%
23:00
15°
1024.5 hPa 26.5 mm 11.3°
2
0%
 06:21     20:50    Daglengte: 14:29 Dinsdag 10 Aug
02:00
13°
1025.0 hPa 26.5 mm 10.7°
1
0%
05:00
13°
1024.5 hPa 26.5 mm 10.2°
1
0%
08:00
15°
1024.9 hPa 26.5 mm 11.5°
1
0%
11:00
20°
1024.0 hPa 26.5 mm 13.7°
1
0%
14:00
23°
1022.7 hPa 26.5 mm 14.0°
2
0%
17:00
23°
1021.8 hPa 26.5 mm 14.1°
2
0%
20:00
19°
1021.5 hPa 26.5 mm 15.2°
1
1%
23:00
16°
1022.4 hPa 26.5 mm 12.8°
1
0%
 06:23     20:48    Daglengte: 14:25 Woensdag 11 Aug
02:00
14°
1022.1 hPa 26.5 mm 11.7°
1
0%
05:00
13°
1021.6 hPa 26.5 mm 11.3°
1
0%
08:00
16°
1021.9 hPa 26.5 mm 12.9°
1
0%
11:00
22°
1021.5 hPa 26.5 mm 15.3°
0
0%
14:00
25°
1021.4 hPa 26.5 mm 16.7°
2
0%
17:00
25°
1020.9 hPa 26.5 mm 17.3°
1
0%
20:00
22°
1021.1 hPa 26.5 mm 17.7°
1
0%
23:00
18°
1022.9 hPa 26.5 mm 15.5°
1
1%
 06:24     20:46    Daglengte: 14:22 Donderdag 12 Aug
02:00
17°
1022.9 hPa 26.5 mm 15.2°
0
1%
05:00
17°
1022.4 hPa 26.5 mm 14.7°
1
1%
08:00
18°
1023.2 hPa 26.5 mm 15.9°
1
1%
11:00
24°
1022.7 hPa   17.8°
1
0%
14:00
26°
1022.0 hPa 53.0 mm 19.1°
2
0%
20:00
23°
1021.6 hPa 53.0 mm 19.4°
1
0%
 06:25     20:45    Daglengte: 14:20 Vrijdag 13 Aug
02:00
18°
1022.5 hPa 53.2 mm 16.4°
1
0%
08:00
19°
1021.7 hPa 53.2 mm 17.0°
1
0%
14:00
28°
1018.8 hPa 53.2 mm 19.3°
2
1%
20:00
24°
1017.3 hPa 53.7 mm 21.6°
1
1%
 06:26     20:43    Daglengte: 14:17 Zaterdag 14 Aug
02:00
20°
1016.5 hPa 54.9 mm 18.3°
1
1%
08:00
20°
1015.5 hPa 57.2 mm 18.3°
1
1%
14:00
28°
1013.6 hPa 58.1 mm 20.6°
3
1%
20:00
23°
1013.3 hPa 61.0 mm 18.9°
2
0%
 06:28     20:41    Daglengte: 14:13 Zondag 15 Aug
02:00
19°
1013.4 hPa 61.2 mm 15.7°
2
0%
08:00
16°
1017.5 hPa 0.8 mm 13.7°
1
38%
14:00
24°
1016.0 hPa 0.4 mm 14.7°
2
41%
20:00
20°
1016.1 hPa 0.7 mm 15.5°
1
43%
 06:29     20:39    Daglengte: 14:10 Maandag 16 Aug
02:00
16°
1017.3 hPa 0.7 mm 13.7°
1
43%
08:00
16°
1017.2 hPa 0.3 mm 13.8°
1
46%
14:00
23°
1016.8 hPa 0.2 mm 14.7°
2
52%
20:00
20°
1017.5 hPa 0.7 mm 15.5°
1
46%
 06:30     20:38    Daglengte: 14:08 Dinsdag 17 Aug
02:00
16°
1018.9 hPa 0.4 mm 13.7°
1
42%
08:00
16°
1019.3 hPa 0.7 mm 14.0°
1
47%
14:00
24°
1018.5 hPa 0.5 mm 14.6°
2
39%
20:00
20°
1018.6 hPa 0.6 mm 15.7°
1
39%
 06:32     20:36    Daglengte: 14:04 Woensdag 18 Aug
02:00
16°
1019.5 hPa 0.9 mm 13.7°
1
32%
08:00
16°
1019.5 hPa 0.4 mm 13.5°
1
34%
14:00
24°
1018.1 hPa 0.5 mm 15.1°
2
48%
20:00
20°
1017.9 hPa 0.8 mm 15.8°
1
44%
 06:33     20:34    Daglengte: 14:01 Donderdag 19 Aug
02:00
16°
1018.9 hPa 0.6 mm 14.0°
1
49%
08:00
16°
1018.5 hPa 0.5 mm 13.9°
1
49%
14:00
24°
1017.0 hPa 0.5 mm 14.6°
2
45%
20:00
20°
1017.1 hPa 0.6 mm 15.4°
1
44%
 06:34     20:32    Daglengte: 13:58 Vrijdag 20 Aug
02:00
16°
1018.0 hPa 0.8 mm 13.7°
1
42%
08:00
16°
1017.8 hPa 0.4 mm 13.2°
1
37%
  CAPE Lifted Index Hail Supercell Tornado SRH 3km CL BTM PRES CL TOP PRES Swiss DWD icon SMHI TS
 06:15     20:58    Daglengte: 14:43 Vandaag
14:00 400 J/kg -1.9 K 0 % 0 % 0 % 0 m²/s² 0 0 -0.16 80
15:00 514 J/kg -2.8 K 0 % 0 % 0 % 0 m²/s² 0 0 -1.81 63
16:00 581 J/kg -2.4 K 0 % 0 % 0 % 0 m²/s² 0 0 -1.5 61
17:00 666 J/kg -2.3 K 0 % 0 % 0 % 0 m²/s² 0 0 -1.22 80
18:00 601 J/kg -2.0 K 0 % 0 % 0 % 0 m²/s² 0 0 -0.44 2
19:00 617 J/kg -1.8 K 0 % 0 % 0 % 0 m²/s² 0 0 -0.96 2
20:00 513 J/kg -1.4 K 0 % 0 % 0 % 0 m²/s² 0 0 -0.71 1
21:00 442 J/kg -1.5 K 0 % 0 % 0 % 0 m²/s² 0 0 0.27 1
22:00 231 J/kg -0.4 K 0 % 0 % 0 % 0 m²/s² 0 0 1.49 0
23:00 40 J/kg 0.8 K 0 % 0 % 0 % 0 m²/s² 0 0 2.39 2
 06:16     20:56    Daglengte: 14:40 Morgen
00:00 0 J/kg 1.3 K 0 % 0 % 0 % 0 m²/s² 0 0 2.23 3
01:00 0 J/kg 1.9 K 0 % 0 % 0 % 0 m²/s² 0 0 2.74 3
02:00 0 J/kg 1.2 K 0 % 0 % 0 % 0 m²/s² 0 0 1.71 80
03:00 0 J/kg 0.3 K 0 % 0 % 0 % 0 m²/s² 0 0 0.33 3
04:00 0 J/kg -0.1 K 0 % 0 % 0 % 0 m²/s² 0 0 1.25 3
05:00 0 J/kg -0.7 K 0 % 0 % 0 % 0 m²/s² 0 0 1.46 3
06:00 1 J/kg -1.1 K 0 % 0 % 0 % 0 m²/s² 0 0 0.31 3
07:00 8 J/kg 0.2 K 0 % 0 % 0 % 0 m²/s² 0 0 3.41 3
08:00 80 J/kg 0.2 K 0 % 0 % 0 % 0 m²/s² 0 0 2.15 3
09:00 15 J/kg 2.0 K 0 % 0 % 0 % 0 m²/s² 0 0 5.78 1
10:00 18 J/kg 2.3 K 0 % 0 % 0 % 0 m²/s² 0 0 6.29 3
11:00 85 J/kg 2.2 K 0 % 0 % 0 % 0 m²/s² 0 0 6.76 2
12:00 67 J/kg 2.7 K 0 % 0 % 0 % 0 m²/s² 0 0 7.62 2
13:00 67 J/kg 2.4 K 0 % 0 % 0 % 0 m²/s² 0 0 7.86 3
14:00 59 J/kg 2.5 K 0 % 0 % 0 % 0 m²/s² 0 0 7.57 3
15:00 58 J/kg 2.2 K 0 % 0 % 0 % 0 m²/s² 0 0 7.39 2
16:00 45 J/kg 2.3 K 0 % 0 % 0 % 0 m²/s² 0 0 7.37 3
17:00 43 J/kg 1.9 K 0 % 0 % 0 % 0 m²/s² 0 0 6.85 3
18:00 34 J/kg 1.9 K 0 % 0 % 0 % 0 m²/s² 0 0 7.09 3
19:00 22 J/kg 2.2 K 0 % 0 % 0 % 0 m²/s² 0 0 7.42 3
20:00 26 J/kg 2.0 K 0 % 0 % 0 % 0 m²/s² 0 0 6.71 3
21:00 21 J/kg 2.2 K 0 % 0 % 0 % 0 m²/s² 0 0 6.46 3
22:00 3 J/kg 2.7 K 0 % 0 % 0 % 0 m²/s² 0 0 6.93 3
23:00 0 J/kg 3.7 K 0 % 0 % 0 % 0 m²/s² 0 0 8.05 2
 06:17     20:54    Daglengte: 14:37 Zaterdag 07 Aug
00:00 0 J/kg 3.7 K 0 % 0 % 0 % 0 m²/s² 0 0 7.93 3
01:00 0 J/kg 3.8 K 0 % 0 % 0 % 0 m²/s² 0 0 7.34 3
02:00 0 J/kg 3.5 K 0 % 0 % 0 % 0 m²/s² 0 0 6.86 3
03:00 0 J/kg 3.1 K 0 % 0 % 0 % 0 m²/s² 0 0 6.73 3
04:00 0 J/kg 2.8 K 0 % 0 % 0 % 0 m²/s² 0 0 6.25 3
05:00 0 J/kg 2.7 K 0 % 0 % 0 % 0 m²/s² 0 0 6.24 3
06:00 0 J/kg 2.1 K 0 % 0 % 0 % 0 m²/s² 0 0 5.73 3
07:00 0 J/kg 1.4 K 0 % 0 % 0 % 0 m²/s² 0 0 4.94 3
08:00 0 J/kg 1.1 K 0 % 0 % 0 % 0 m²/s² 0 0 3.86 3
09:00 0 J/kg 1.1 K 0 % 0 % 0 % 0 m²/s² 0 0 2.54 3
10:00 1 J/kg 1.2 K 0 % 0 % 0 % 0 m²/s² 0 0 2.52 61
11:00 64 J/kg 0.1 K 0 % 0 % 0 % 0 m²/s² 0 0 1.06 61
12:00 162 J/kg -0.4 K 0 % 0 % 0 % 0 m²/s² 0 0 0.14 61
13:00 6 J/kg 3.4 K 0 % 0 % 0 % 0 m²/s² 0 0 3.4 61
14:00 55 J/kg 4.3 K 0 % 0 % 0 % 0 m²/s² 0 0 4.48 61
15:00 67 J/kg 4.5 K 0 % 0 % 0 % 0 m²/s² 0 0 4.5 80
16:00 4 J/kg 4.8 K 0 % 0 % 0 % 0 m²/s² 0 0 5.07 80
17:00 1 J/kg 3.7 K 0 % 0 % 0 % 0 m²/s² 0 0 4.06 61
18:00 0 J/kg 3.7 K 0 % 0 % 0 % 0 m²/s² 0 0 4.18 63
19:00 0 J/kg 3.2 K 0 % 0 % 0 % 0 m²/s² 0 0 3.29 65
20:00 0 J/kg 1.9 K 0 % 0 % 0 % 0 m²/s² 0 0 3.01 63
21:00 0 J/kg 2.7 K 0 % 0 % 0 % 0 m²/s² 0 0 6.81 63
22:00 0 J/kg 2.3 K 0 % 0 % 0 % 0 m²/s² 0 0 5.03 61
23:00 0 J/kg 0.9 K 0 % 0 % 0 % 0 m²/s² 0 0 2.7 61
 06:19     20:53    Daglengte: 14:34 Zondag 08 Aug
00:00 32 J/kg 0.1 K 0 % 0 % 0 % 0 m²/s² 0 0 2.02 3
01:00 17 J/kg 0.5 K 0 % 0 % 0 % 0 m²/s² 0 0 3.5 1
02:00 71 J/kg 0.1 K 0 % 0 % 0 % 0 m²/s² 0 0 0.19 2
03:00 100 J/kg 0.3 K 0 % 0 % 0 % 0 m²/s² 0 0 3.81 1
04:00 23 J/kg 1.3 K 0 % 0 % 0 % 0 m²/s² 0 0 5.2 1
05:00 2 J/kg 1.8 K 0 % 0 % 0 % 0 m²/s² 0 0 5.28 2
06:00 0 J/kg 1.8 K 0 % 0 % 0 % 0 m²/s² 0 0 4.62 2
07:00 0 J/kg 2.5 K 0 % 0 % 0 % 0 m²/s² 0 0 5.38 2
08:00 24 J/kg 3.0 K 0 % 0 % 0 % 0 m²/s² 0 0 5.79 2
09:00 0 J/kg 0.0 K 0 % 0 % 0 % 0 m²/s² 0 0 13.83 2
Temp Baro Wind Neerslag
  EWN Forecast EWN WRFDA DWD ICON FMI HIRLAM MET Norway GFS
 06:15     20:58    Daglengte: 14:43 Vandaag
14:00 18.7° 1010.9 hPa 2.9 m/s 0.0 mm 17.8° 1009.5 hPa 1.8 m/s 6.2 mm 18.8° 1011.1 hPa 2.8 m/s -0.8 mm 19.8° 1011.0 hPa 2.1 m/s 0.0 mm 17.6° 1011.5 hPa 2.1 m/s
17:00 19.7° 1010.1 hPa 4.7 m/s 4.2 mm 20.8° 1008.3 hPa 6.0 m/s 20.8 mm 19.9° 1010.2 hPa 3.4 m/s 3.3 mm 17.5° 1010.6 hPa 4.7 m/s 0.0 mm 18.8° 1010.8 hPa 4.3 m/s
20:00 17.9° 1010.4 hPa 3.1 m/s 0.0 mm 19.9° 1008.2 hPa 3.2 m/s 23.5 mm 19.0° 1010.2 hPa 2.3 m/s 0.0 mm 17.2° 1010.7 hPa 3.0 m/s 0.0 mm 17.1° 1010.6 hPa 2.0 m/s
23:00 15.4° 1011.0 hPa 1.7 m/s 0.0 mm 15.3° 1008.7 hPa 2.6 m/s 24.2 mm 15.5° 1011.4 hPa 1.5 m/s 0.0 mm 15.8° 1011.3 hPa 2.4 m/s 0.0 mm 14.3° 1011.0 hPa 2.1 m/s
 06:16     20:56    Daglengte: 14:40 Morgen
02:00 14.7° 1009.4 hPa 2.2 m/s 0.0 mm 16.9° 1007.5 hPa 2.5 m/s 24.2 mm 14.9° 1010.1 hPa 2.3 m/s 0.5 mm 14.6° 1009.5 hPa 2.2 m/s 0.0 mm 14.4° 1010.0 hPa 2.1 m/s
05:00 14.8° 1008.4 hPa 1.8 m/s 3.7 mm 15.9° 1005.8 hPa 2.1 m/s 24.4 mm 14.7° 1009.0 hPa 1.4 m/s 0.4 mm 14.9° 1007.8 hPa 1.9 m/s 0.0 mm 14.6° 1008.8 hPa 2.1 m/s
08:00 16.3° 1009.7 hPa 3.7 m/s 0.0 mm 16.1° 1007.1 hPa 3.7 m/s 26.0 mm 16.6° 1010.4 hPa 2.9 m/s 0.1 mm 16.3° 1009.0 hPa 4.6 m/s 0.0 mm 15.8° 1010.3 hPa 2.5 m/s
11:00 18.3° 1010.7 hPa 5.1 m/s 0.0 mm 19.0° 1008.4 hPa 5.9 m/s 27.7 mm 18.6° 1011.1 hPa 4.3 m/s 0.0 mm 16.4° 1010.2 hPa 4.9 m/s 0.0 mm 19.4° 1011.1 hPa 5.4 m/s
14:00 20.1° 1010.5 hPa 5.2 m/s 0.0 mm 21.4° 1008.1 hPa 6.5 m/s 27.7 mm 22.1° 1010.5 hPa 5.1 m/s 0.0 mm 17.8° 1010.8 hPa 4.5 m/s 0.0 mm 21.8° 1010.2 hPa 5.6 m/s
17:00 20.8° 1010.1 hPa 4.2 m/s 0.0 mm 21.9° 1007.5 hPa 5.6 m/s 27.7 mm 21.8° 1010.0 hPa 4.1 m/s 0.0 mm 17.2° 1010.6 hPa 2.9 m/s 0.0 mm 21.9° 1009.6 hPa 4.5 m/s
20:00 19.0° 1010.0 hPa 2.0 m/s 0.0 mm 20.8° 1007.4 hPa 2.8 m/s 27.7 mm 20.0° 1010.0 hPa 1.3 m/s 0.0 mm 17.2° 1010.6 hPa 2.4 m/s 0.0 mm 18.1° 1010.2 hPa 1.7 m/s
23:00 15.1° 1010.4 hPa 1.6 m/s 0.0 mm 16.2° 1008.2 hPa 3.0 m/s 27.7 mm 16.4° 1010.1 hPa 1.3 m/s 0.0 mm 13.7° 1011.8 hPa 1.3 m/s 0.0 mm 14.5° 1010.9 hPa 1.5 m/s
 06:17     20:54    Daglengte: 14:37 Zaterdag 07 Aug
02:00 13.7° 1009.8 hPa 1.4 m/s 0.0 mm 14.8° 1007.6 hPa 2.5 m/s 27.7 mm 15.1° 1009.8 hPa 1.1 m/s 0.0 mm 12.3° 1011.5 hPa 1.1 m/s 0.0 mm 14.9° 1010.2 hPa 1.3 m/s
05:00 13.5° 1008.5 hPa 1.5 m/s 0.0 mm 14.4° 1006.4 hPa 2.6 m/s 27.7 mm 14.9° 1008.4 hPa 0.7 m/s 0.0 mm 11.1° 1010.5 hPa 1.5 m/s 0.0 mm 13.6° 1008.8 hPa 1.6 m/s
08:00 14.7° 1007.7 hPa 1.2 m/s 0.0 mm 17.6° 1005.7 hPa 3.5 m/s 27.7 mm 16.0° 1007.3 hPa 0.2 m/s 0.0 mm 13.1° 1009.3 hPa 1.1 m/s 0.0 mm 15.4° 1007.2 hPa 1.3 m/s
11:00 18.6° 1006.8 hPa 0.7 m/s 5.5 mm 22.4° 1004.8 hPa 0.7 m/s 27.7 mm 17.7° 1007.2 hPa 0.4 m/s 0.9 mm 21.4° 1005.2 hPa 0.7 m/s
14:00 17.6° 1006.8 hPa 2.0 m/s 7.9 mm 16.5° 1006.4 hPa 5.1 m/s 30.2 mm 17.6° 1007.1 hPa 0.6 m/s 3.3 mm 23.3° 1005.5 hPa 4.2 m/s
17:00 15.9° 1006.7 hPa 2.4 m/s 18.9 mm 14.4° 1006.5 hPa 1.8 m/s 73.3 mm 16.5° 1006.5 hPa 1.7 m/s 6.7 mm 16.7° 1008.3 hPa 3.3 m/s
20:00 15.6° 1007.4 hPa 2.6 m/s 38.6 mm 16.4° 1005.3 hPa 3.9 m/s 113.3 mm 15.5° 1007.3 hPa 2.3 m/s 24.9 mm 15.1° 1008.7 hPa 1.0 m/s
23:00 15.3° 1010.1 hPa 1.0 m/s 26.2 mm 15.3° 1008.2 hPa 0.6 m/s 116.2 mm 15.6° 1010.1 hPa 0.6 m/s 4.3 mm 14.6° 1011.3 hPa 2.6 m/s
 06:19     20:53    Daglengte: 14:34 Zondag 08 Aug
02:00 15.2° 1011.1 hPa 1.4 m/s 13.0 mm 15.7° 1008.7 hPa 2.9 m/s 116.3 mm 15.7° 1011.4 hPa 1.2 m/s 0.0 mm 14.6° 1012.0 hPa 2.1 m/s
05:00 13.4° 1011.8 hPa 1.7 m/s 0.0 mm 13.0° 1009.4 hPa 3.3 m/s 116.4 mm 15.3° 1012.5 hPa 1.2 m/s 0.0 mm 14.2° 1012.5 hPa 1.4 m/s
08:00 14.5° 1013.6 hPa 2.4 m/s 38.9 mm 14.4° 1011.1 hPa 4.7 m/s 116.4 mm 15.3° 1014.4 hPa 1.9 m/s 0.0 mm 14.4° 1013.7 hPa 1.4 m/s
11:00 17.4° 1015.3 hPa 3.9 m/s 0.0 mm 17.4° 1015.4 hPa 3.9 m/s 0.0 mm 17.0° 1015.1 hPa 4.3 m/s 25.3 mm
14:00 19.9° 1015.6 hPa 4.2 m/s 0.0 mm 20.0° 1015.5 hPa 4.1 m/s 0.0 mm 19.5° 1015.7 hPa 4.5 m/s 25.5 mm
17:00 18.8° 1017.2 hPa 5.2 m/s 25.8 mm 18.8° 1017.2 hPa 5.2 m/s 25.8 mm
20:00 16.3° 1018.8 hPa 2.0 m/s 26.4 mm 16.3° 1018.8 hPa 2.0 m/s 26.4 mm
23:00 13.1° 1021.0 hPa 1.8 m/s 26.4 mm 13.1° 1021.0 hPa 1.8 m/s 26.4 mm
 06:20     20:51    Daglengte: 14:31 Maandag 09 Aug
02:00 12.2° 1021.2 hPa 1.8 m/s 26.4 mm 12.2° 1021.2 hPa 1.8 m/s 26.4 mm
05:00 12.1° 1020.7 hPa 1.6 m/s 26.4 mm 12.1° 1020.7 hPa 1.6 m/s 26.4 mm
08:00 14.1° 1021.3 hPa 1.2 m/s 26.4 mm 14.1° 1021.3 hPa 1.2 m/s 26.4 mm
11:00 18.6° 1022.2 hPa 0.6 m/s 26.4 mm 18.6° 1022.2 hPa 0.6 m/s 26.4 mm
14:00 20.5° 1022.4 hPa 1.9 m/s 26.4 mm 20.5° 1022.4 hPa 1.9 m/s 26.4 mm
17:00 21.5° 1022.1 hPa 3.1 m/s 26.4 mm 21.5° 1022.1 hPa 3.1 m/s 26.4 mm
20:00 18.1° 1023.0 hPa 1.9 m/s 26.5 mm 18.1° 1023.0 hPa 1.9 m/s 26.5 mm
23:00 14.5° 1024.5 hPa 1.5 m/s 26.5 mm 14.5° 1024.5 hPa 1.5 m/s 26.5 mm
 06:21     20:50    Daglengte: 14:29 Dinsdag 10 Aug
02:00 13.4° 1025.0 hPa 1.2 m/s 26.5 mm 13.4° 1025.0 hPa 1.2 m/s 26.5 mm
05:00 12.5° 1024.5 hPa 1.2 m/s 26.5 mm 12.5° 1024.5 hPa 1.2 m/s 26.5 mm
08:00 14.7° 1024.9 hPa 0.9 m/s 26.5 mm 14.7° 1024.9 hPa 0.9 m/s 26.5 mm
11:00 20.4° 1024.0 hPa 0.8 m/s 26.5 mm 20.4° 1024.0 hPa 0.8 m/s 26.5 mm
14:00 22.6° 1022.7 hPa 2.0 m/s 26.5 mm 22.6° 1022.7 hPa 2.0 m/s 26.5 mm
17:00 23.0° 1021.8 hPa 1.6 m/s 26.5 mm 23.0° 1021.8 hPa 1.6 m/s 26.5 mm
20:00 19.3° 1021.5 hPa 1.0 m/s 26.5 mm 19.3° 1021.5 hPa 1.0 m/s 26.5 mm
23:00 15.7° 1022.4 hPa 0.5 m/s 26.5 mm 15.7° 1022.4 hPa 0.5 m/s 26.5 mm
 06:23     20:48    Daglengte: 14:25 Woensdag 11 Aug
02:00 14.2° 1022.1 hPa 1.0 m/s 26.5 mm 14.2° 1022.1 hPa 1.0 m/s 26.5 mm
05:00 13.5° 1021.6 hPa 1.2 m/s 26.5 mm 13.5° 1021.6 hPa 1.2 m/s 26.5 mm
08:00 15.7° 1021.9 hPa 1.0 m/s 26.5 mm 15.7° 1021.9 hPa 1.0 m/s 26.5 mm
11:00 21.8° 1021.5 hPa 0.5 m/s 26.5 mm 21.8° 1021.5 hPa 0.5 m/s 26.5 mm
14:00 24.6° 1021.4 hPa 2.1 m/s 26.5 mm 24.6° 1021.4 hPa 2.1 m/s 26.5 mm
17:00 25.3° 1020.9 hPa 1.5 m/s 26.5 mm 25.3° 1020.9 hPa 1.5 m/s 26.5 mm
20:00 21.9° 1021.1 hPa 0.6 m/s 26.5 mm 21.9° 1021.1 hPa 0.6 m/s 26.5 mm
23:00 18.1° 1022.9 hPa 0.8 m/s 26.5 mm 18.1° 1022.9 hPa 0.8 m/s 26.5 mm
 06:24     20:46    Daglengte: 14:22 Donderdag 12 Aug
02:00 17.4° 1022.9 hPa 0.5 m/s 26.5 mm 17.4° 1022.9 hPa 0.5 m/s 26.5 mm
05:00 16.6° 1022.4 hPa 0.9 m/s 26.5 mm 16.6° 1022.4 hPa 0.9 m/s 26.5 mm
08:00 18.3° 1023.2 hPa 0.6 m/s 26.5 mm 18.3° 1023.2 hPa 0.6 m/s 26.5 mm
11:00 23.5° 1022.7 hPa 1.1 m/s 26.5 mm 23.5° 1022.7 hPa 1.1 m/s 26.5 mm
14:00 26.3° 1022.0 hPa 2.1 m/s 26.5 mm 26.3° 1022.0 hPa 2.1 m/s 26.5 mm
20:00 23.2° 1021.6 hPa 1.0 m/s 26.5 mm 23.2° 1021.6 hPa 1.0 m/s 26.5 mm
 06:25     20:45    Daglengte: 14:20 Vrijdag 13 Aug
02:00 18.4° 1022.5 hPa 0.5 m/s 26.6 mm 18.4° 1022.5 hPa 0.5 m/s 26.6 mm
08:00 19.1° 1021.7 hPa 1.2 m/s 26.6 mm 19.1° 1021.7 hPa 1.2 m/s 26.6 mm
14:00 28.2° 1018.8 hPa 1.6 m/s 26.6 mm 28.2° 1018.8 hPa 1.6 m/s 26.6 mm
20:00 24.3° 1017.3 hPa 0.8 m/s 27.1 mm 24.3° 1017.3 hPa 0.8 m/s 27.1 mm
 06:26     20:43    Daglengte: 14:17 Zaterdag 14 Aug
02:00 20.4° 1016.5 hPa 1.1 m/s 27.6 mm 20.4° 1016.5 hPa 1.1 m/s 27.6 mm
08:00 20.4° 1015.5 hPa 1.3 m/s 28.9 mm 20.4° 1015.5 hPa 1.3 m/s 28.9 mm
14:00 27.9° 1013.6 hPa 3.2 m/s 29.1 mm 27.9° 1013.6 hPa 3.2 m/s 29.1 mm
20:00 23.1° 1013.3 hPa 2.5 m/s 30.6 mm 23.1° 1013.3 hPa 2.5 m/s 30.6 mm
 06:28     20:41    Daglengte: 14:13 Zondag 15 Aug
02:00 19.0° 1013.4 hPa 1.9 m/s 30.6 mm 19.0° 1013.4 hPa 1.9 m/s 30.6 mm
08:00 16.4° 1017.5 hPa 0.9 m/s 0.8 mm
14:00 23.7° 1016.0 hPa 2.2 m/s 0.4 mm
20:00 20.0° 1016.1 hPa 1.4 m/s 0.7 mm
 06:29     20:39    Daglengte: 14:10 Maandag 16 Aug
02:00 15.9° 1017.3 hPa 0.9 m/s 0.7 mm
08:00 16.2° 1017.2 hPa 1.0 m/s 0.3 mm
14:00 23.3° 1016.8 hPa 2.0 m/s 0.2 mm
20:00 19.8° 1017.5 hPa 1.2 m/s 0.7 mm
 06:30     20:38    Daglengte: 14:08 Dinsdag 17 Aug
02:00 15.7° 1018.9 hPa 0.7 m/s 0.4 mm
08:00 16.2° 1019.3 hPa 0.9 m/s 0.7 mm
14:00 23.8° 1018.5 hPa 1.9 m/s 0.5 mm
20:00 20.2° 1018.6 hPa 1.0 m/s 0.6 mm
 06:32     20:36    Daglengte: 14:04 Woensdag 18 Aug
02:00 15.9° 1019.5 hPa 0.8 m/s 0.9 mm
08:00 16.0° 1019.5 hPa 0.8 m/s 0.4 mm
14:00 23.8° 1018.1 hPa 1.7 m/s 0.5 mm
20:00 20.3° 1017.9 hPa 1.1 m/s 0.8 mm
 06:33     20:34    Daglengte: 14:01 Donderdag 19 Aug
02:00 16.2° 1018.9 hPa 0.9 m/s 0.6 mm
08:00 16.1° 1018.5 hPa 0.9 m/s 0.5 mm
14:00 23.8° 1017.0 hPa 1.8 m/s 0.5 mm
20:00 20.1° 1017.1 hPa 1.2 m/s 0.6 mm
 06:34     20:32    Daglengte: 13:58 Vrijdag 20 Aug
02:00 15.9° 1018.0 hPa 0.8 m/s 0.8 mm
08:00 15.8° 1017.8 hPa 0.8 m/s 0.4 mm
FMI Hirlam - 7.5 km EWN WRFDA - 12 km DWD ICON - 7 km GFS - 25 km Basiskaart






























































Updatetijd (Europe/Brussels) Resolutie Lengte Stap
FMI Hirlam 07:00, 13:00, 19:00, 01:00 7.5 km 49h 1h
EWN WRFDA 04:15, 10:15, 16:15, 22:15 12 km 73h 1h
DWD ICON 11:45, 17:45, 23:45, 05:45 7 km 75h 1h
GFS 08:30, 14:30, 20:30, 02:30 25 km 237h 3h
30+ mm
25-30 mm
20-25 mm
15-20 mm
10-15 mm
6-10 mm
4-6 mm
2-4 mm
1-2 mm
0.5-1 mm
0.2-0.5 mm
0.1-0.2 mm
30+ mm
25-30 mm
20-25 mm
15-20 mm
10-15 mm
6-10 mm
4-6 mm
2-4 mm
1-2 mm
0.5-1 mm
0.2-0.5 mm
0.1-0.2 mm
Sneeuwval
Natte sneeuw
Hagel
Vorst
30+ mm
25-30 mm
20-25 mm
15-20 mm
10-15 mm
6-10 mm
4-6 mm
2-4 mm
1-2 mm
0.5-1 mm
0.2-0.5 mm
0.1-0.2 mm
Sneeuwval
Natte sneeuw
Hagel
Vorst
Onweer
50 mm
40 mm
30 mm
26 mm
22 mm
18 mm
14 mm
10 mm
9 mm
8 mm
7 mm
6 mm
5 mm
4.5 mm
4 mm
3.5 mm
3 mm
2.5 mm
2 mm
1.5 mm
1 mm
0.8 mm
0.6 mm
0.4 mm
0.2 mm
0.05 mm
35°
30°
25°
20°
15°
10°
-5°
-10°
-15°
-20°
-25°
-30°
-35°
33> m/s
29 m/s
25 m/s
21 m/s
17 m/s
14 m/s
11 m/s
8 m/s
5 m/s
3 m/s
0 m/s
2600 J/kg
2400 J/kg
2200 J/kg
2000 J/kg
1800 J/kg
1600 J/kg
1400 J/kg
1200 J/kg
1000 J/kg
800 J/kg
600 J/kg
400 J/kg
200 J/kg
70 dBZ
65 dBZ
60 dBZ
55 dBZ
50 dBZ
45 dBZ
40 dBZ
35 dBZ
30 dBZ
25 dBZ
20 dBZ
15 dBZ
10 dBZ
5 dBZ
-1 K
-2 K
-3 K
-4 K
-5 K
-6 K
-7 K
-8 K
-9 K
950 m²/s²
900 m²/s²
850 m²/s²
800 m²/s²
750 m²/s²
700 m²/s²
650 m²/s²
600 m²/s²
550 m²/s²
500 m²/s²
450 m²/s²
400 m²/s²
350 m²/s²
300 m²/s²
250 m²/s²
200 m²/s²
150 m²/s²
100 m²/s²
46 m/s
44 m/s
42 m/s
40 m/s
38 m/s
36 m/s
34 m/s
32 m/s
30 m/s
28 m/s
26 m/s
24 m/s
22 m/s
20 m/s
16 m/s
12 m/s
8 m/s
4 m/s
30 m/s
28 m/s
26 m/s
24 m/s
22 m/s
20 m/s
18 m/s
16 m/s
14 m/s
12 m/s
10 m/s
8 m/s
6 m/s
4 m/s
2 m/s
3.0
2.8
2.6
2.4
2.2
2.0
1.8
1.6
1.4
1.2
1.0
0.8
0.6
0.4
0.2
15
14
13
12
11
10
9
8
7
6
5
4
3
2
1
90%
80%
70%
60%
50%
40%
30%
20%
10%
42
40
38
36
34
32
30
28
26
24
22
20
18
16
14
12
90+ cm
80-90 cm
70-80 cm
60-70 cm
50-60 cm
40-50 cm
30-40 cm
20-30 cm
10-20 cm
1-10 cm
Sneeuwval
Natte sneeuw
Regen
>120 mm
115 mm
110 mm
105 mm
100 mm
95 mm
90 mm
85 mm
80 mm
75 mm
70 mm
65 mm
60 mm
55 mm
50 mm
45 mm
45 mm
40 mm
35 mm
30 mm
25 mm
20 mm
15 mm
10 mm
5 mm
0.1 mm
960 hPa
880 hPa
800 hPa
720 hPa
640 hPa
560 hPa
584 gpdm
568 gpdm
552 gpdm
536 gpdm
520 gpdm
504 gpdm
488 gpdm
Extreem zwaar Noodweer Kans op onweer
15% 15% 5% 50% 15%

Dag




Kaart






35°
30°
25°
20°
15°
10°
-5°
-10°
-15°
-20°
-25°
-30°
-35°
33> m/s
29 m/s
25 m/s
21 m/s
17 m/s
14 m/s